User: anonymous   Login
Location: Unspecified
(0.0000°N, 0.0000°E)
Time: 11:16:47
(UTC+00:00)
Language:

NIGERIASAT 2 - Orbit

View from above orbital plane
View from above orbital plane
View from above satellite
View from above satellite

Ground track
Ground track

The orbit data is extracted from the following two-line orbital elements,

1 37789U 11044B   18020.09863572 -.00000009  00000-0  72493-5 0  9995
2 37789  98.0191  90.3277 0012477  73.8150 286.4431 14.62054713342715
Epoch (UTC): 20 January 2018 02:22:02
Eccentricity: 0.0012477
inclination: 98.0191°
perigee height: 678 km
apogee height: 695 km
right ascension of ascending node: 90.3277°
argument of perigee: 73.8150°
revolutions per day: 14.62054713
mean anomaly at epoch: 286.4431°
orbit number at epoch: 34271

The dashed part of the orbit path shows where the satellite is in the earth's shadow,  

DLR